• In Germany
  • List of Countries
  • For 7 days
  • Water Temperature
  • Satellite Maps
  • Weather Map
  • Weather Widgets
  • user-avatar
    Login

    Hourly Weather Malanje

    Today, 23 November, Thursday

    Time Temperature Precipitation Wind Pressure Humidity
    00:00 +17°C° 0 mm 0 mps 664 mmHg 94%
    01:00 +17°C° 0 mm 0 mps 664 mmHg 95%
    02:00 +17°C° 0 mm 0 mps 663 mmHg 95%
    03:00 +16°C° 0 mm 0 mps 663 mmHg 95%
    04:00 +16°C° 0 mm 0 mps 663 mmHg 95%
    05:00 +17°C° 0 mm 0 mps 664 mmHg 92%
    06:00 +18°C° 0 mm 0 mps 664 mmHg 90%
    07:00 +19°C° 0 mm 0 mps 665 mmHg 87%
    08:00 +22°C° 0 mm 0 mps 665 mmHg 78%
    09:00 +25°C° 0 mm 0 mps 666 mmHg 70%
    10:00 +28°C° 0 mm 0 mps 667 mmHg 61%
    11:00 +28°C° 0.1 mm 0 mps 666 mmHg 59%
    12:00 +29°C° 0.1 mm 0 mps 665 mmHg 57%
    13:00 +31°C° 0.1 mm 1 mps 665 mmHg 55%
    14:00 +30°C° 0.8 mm 1 mps 664 mmHg 61%
    15:00 +29°C° 0.8 mm 1 mps 664 mmHg 68%
    16:00 +28°C° 0.8 mm 1 mps 663 mmHg 74%
    17:00 +25°C° 1 mm 1 mps 663 mmHg 80%
    18:00 +23°C° 1 mm 1 mps 663 mmHg 86%
    19:00 +21°C° 1 mm 1 mps 663 mmHg 92%
    20:00 +21°C° 0.4 mm 1 mps 664 mmHg 93%
    21:00 +21°C° 0.4 mm 1 mps 664 mmHg 94%
    22:00 +20°C° 0.4 mm 1 mps 665 mmHg 96%
    23:00 +20°C° 1.2 mm 1 mps 665 mmHg 97%

    Tomorrow, 24 November, Friday

    Time Temperature Precipitation Wind Pressure Humidity
    00:00 +20°C° 1.2 mm 1 mps 665 mmHg 97%
    01:00 +20°C° 1.2 mm 1 mps 664 mmHg 98%
    02:00 +20°C° 0.6 mm 1 mps 664 mmHg 98%
    03:00 +20°C° 0.6 mm 1 mps 664 mmHg 98%
    04:00 +20°C° 0.6 mm 1 mps 664 mmHg 98%
    05:00 +20°C° 0.8 mm 1 mps 664 mmHg 98%
    06:00 +20°C° 0.8 mm 1 mps 665 mmHg 98%
    07:00 +20°C° 0.8 mm 1 mps 665 mmHg 97%
    08:00 +20°C° 0.9 mm 2 mps 665 mmHg 96%
    09:00 +21°C° 0.9 mm 2 mps 666 mmHg 94%
    10:00 +21°C° 0.9 mm 2 mps 666 mmHg 93%
    11:00 +23°C° 0.5 mm 2 mps 666 mmHg 89%
    12:00 +24°C° 0.5 mm 3 mps 665 mmHg 85%
    13:00 +25°C° 0.5 mm 3 mps 665 mmHg 81%
    14:00 +25°C° 0.3 mm 3 mps 664 mmHg 80%
    15:00 +25°C° 0.3 mm 3 mps 664 mmHg 78%
    16:00 +25°C° 0.3 mm 3 mps 663 mmHg 76%
    17:00 +24°C° 0.4 mm 3 mps 664 mmHg 82%
    18:00 +21°C° 0.4 mm 2 mps 664 mmHg 88%
    19:00 +20°C° 0.4 mm 2 mps 664 mmHg 94%
    20:00 +20°C° 1.2 mm 2 mps 665 mmHg 95%
    21:00 +20°C° 1.2 mm 1 mps 665 mmHg 96%
    22:00 +20°C° 1.2 mm 1 mps 666 mmHg 98%
    23:00 +20°C° 2.7 mm 1 mps 665 mmHg 98%

    Day after tomorrow, 25 November, Saturday

    Time Temperature Precipitation Wind Pressure Humidity
    00:00 +20°C° 2.7 mm 1 mps 665 mmHg 98%
    01:00 +20°C° 2.7 mm 1 mps 664 mmHg 98%
    02:00 +20°C° 2.4 mm 1 mps 664 mmHg 98%
    03:00 +19°C° 2.4 mm 2 mps 664 mmHg 98%
    04:00 +19°C° 2.4 mm 2 mps 664 mmHg 98%
    05:00 +19°C° 2.5 mm 2 mps 664 mmHg 98%
    06:00 +20°C° 2.5 mm 1 mps 665 mmHg 98%
    07:00 +20°C° 2.5 mm 1 mps 665 mmHg 98%
    08:00 +20°C° 1.7 mm 1 mps 665 mmHg 98%
    09:00 +20°C° 1.7 mm 1 mps 665 mmHg 97%
    10:00 +20°C° 1.7 mm 2 mps 666 mmHg 97%
    11:00 +20°C° 0.5 mm 2 mps 665 mmHg 93%
    12:00 +21°C° 0.5 mm 2 mps 665 mmHg 89%
    13:00 +22°C° 0.5 mm 3 mps 664 mmHg 85%
    14:00 +22°C° 0.4 mm 3 mps 664 mmHg 86%
    15:00 +22°C° 0.4 mm 3 mps 664 mmHg 87%
    16:00 +22°C° 0.4 mm 3 mps 663 mmHg 88%
    17:00 +21°C° 0.5 mm 2 mps 664 mmHg 91%
    18:00 +20°C° 0.5 mm 2 mps 664 mmHg 94%
    19:00 +19°C° 0.5 mm 2 mps 665 mmHg 98%
    20:00 +19°C° 1.6 mm 2 mps 665 mmHg 98%
    21:00 +19°C° 1.6 mm 2 mps 665 mmHg 98%
    22:00 +19°C° 1.6 mm 2 mps 666 mmHg 98%
    23:00 +18°C° 1.3 mm 2 mps 665 mmHg 98%

    26 November, Sunday

    Time Temperature Precipitation Wind Pressure Humidity
    00:00 +18°C° 1.3 mm 2 mps 665 mmHg 98%
    01:00 +18°C° 1.3 mm 2 mps 665 mmHg 98%
    02:00 +18°C° 0.5 mm 2 mps 665 mmHg 98%
    03:00 +18°C° 0.5 mm 2 mps 665 mmHg 98%
    04:00 +18°C° 0.5 mm 2 mps 665 mmHg 98%
    05:00 +18°C° 0.9 mm 2 mps 665 mmHg 98%
    06:00 +18°C° 0.9 mm 2 mps 666 mmHg 98%
    07:00 +18°C° 0.9 mm 2 mps 666 mmHg 98%
    08:00 +18°C° 1.2 mm 2 mps 667 mmHg 97%
    09:00 +19°C° 1.2 mm 2 mps 667 mmHg 97%
    10:00 +19°C° 1.2 mm 2 mps 667 mmHg 96%
    11:00 +19°C° 0.9 mm 2 mps 667 mmHg 96%
    12:00 +20°C° 0.9 mm 2 mps 666 mmHg 95%
    13:00 +20°C° 0.9 mm 2 mps 666 mmHg 94%
    14:00 +20°C° 0.5 mm 2 mps 665 mmHg 95%
    15:00 +20°C° 0.5 mm 2 mps 665 mmHg 95%
    16:00 +20°C° 0.5 mm 2 mps 665 mmHg 95%
    17:00 +20°C° 0.2 mm 1 mps 666 mmHg 96%
    18:00 +19°C° 0.2 mm 1 mps 666 mmHg 97%
    19:00 +19°C° 0.2 mm 1 mps 666 mmHg 98%
    20:00 +19°C° 0.2 mm 1 mps 667 mmHg 98%
    21:00 +19°C° 0.2 mm 1 mps 667 mmHg 98%
    22:00 +19°C° 0.2 mm 1 mps 667 mmHg 99%
    23:00 +18°C° 0.2 mm 1 mps 667 mmHg 99%

    27 November, Monday

    Time Temperature Precipitation Wind Pressure Humidity
    00:00 +18°C° 0.2 mm 1 mps 666 mmHg 99%
    01:00 +18°C° 0.2 mm 1 mps 666 mmHg 99%
    02:00 +18°C° 0.2 mm 1 mps 666 mmHg 99%
    03:00 +18°C° 0.2 mm 1 mps 666 mmHg 99%
    04:00 +18°C° 0.2 mm 1 mps 665 mmHg 98%
    05:00 +18°C° 0.1 mm 1 mps 666 mmHg 98%
    06:00 +18°C° 0.1 mm 1 mps 666 mmHg 98%
    07:00 +19°C° 0.1 mm 1 mps 667 mmHg 97%
    08:00 +20°C° 0.1 mm 1 mps 667 mmHg 91%
    09:00 +21°C° 0.1 mm 1 mps 667 mmHg 85%
    10:00 +23°C° 0.1 mm 2 mps 668 mmHg 79%
    11:00 +24°C° 0.3 mm 2 mps 667 mmHg 77%
    12:00 +25°C° 0.3 mm 2 mps 666 mmHg 74%
    13:00 +25°C° 0.3 mm 3 mps 666 mmHg 72%
    14:00 +25°C° 0.5 mm 2 mps 666 mmHg 74%
    15:00 +25°C° 0.5 mm 2 mps 665 mmHg 77%
    16:00 +25°C° 0.5 mm 2 mps 665 mmHg 80%
    17:00 +23°C° 0.2 mm 2 mps 665 mmHg 84%
    18:00 +21°C° 0.2 mm 2 mps 665 mmHg 89%
    19:00 +20°C° 0.2 mm 1 mps 665 mmHg 93%
    20:00 +20°C° 0 mm 1 mps 666 mmHg 94%
    21:00 +19°C° 0 mm 1 mps 666 mmHg 94%
    22:00 +19°C° 0 mm 1 mps 666 mmHg 94%
    23:00 +19°C° 0 mm 1 mps 665 mmHg 94%

    28 November, Tuesday

    Time Temperature Precipitation Wind Pressure Humidity
    00:00 +18°C° 0 mm 1 mps 665 mmHg 94%
    01:00 +18°C° 0 mm 1 mps 664 mmHg 94%
    02:00 +18°C° 0 mm 1 mps 664 mmHg 94%
    03:00 +18°C° 0 mm 1 mps 664 mmHg 94%
    04:00 +16°C° 0 mm 1 mps 664 mmHg 94%
    05:00 +18°C° 0 mm 1 mps 665 mmHg 91%
    06:00 +19°C° 0 mm 1 mps 665 mmHg 89%
    07:00 +20°C° 0 mm 1 mps 666 mmHg 87%
    08:00 +22°C° 0 mm 1 mps 666 mmHg 78%
    09:00 +24°C° 0 mm 1 mps 667 mmHg 70%
    10:00 +26°C° 0 mm 2 mps 667 mmHg 61%
    11:00 +27°C° 0.1 mm 2 mps 666 mmHg 61%
    12:00 +28°C° 0.1 mm 2 mps 666 mmHg 60%
    13:00 +28°C° 0.1 mm 2 mps 665 mmHg 60%
    14:00 +27°C° 0.9 mm 2 mps 665 mmHg 67%
    15:00 +27°C° 0.9 mm 2 mps 664 mmHg 74%
    16:00 +26°C° 0.9 mm 2 mps 664 mmHg 80%
    17:00 +24°C° 0.8 mm 2 mps 664 mmHg 84%
    18:00 +23°C° 0.8 mm 1 mps 664 mmHg 88%
    19:00 +21°C° 0.8 mm 1 mps 664 mmHg 93%
    20:00 +21°C° 0.3 mm 1 mps 665 mmHg 93%
    21:00 +20°C° 0.3 mm 1 mps 665 mmHg 94%
    22:00 +20°C° 0.3 mm 1 mps 665 mmHg 94%
    23:00 +20°C° 0.1 mm 1 mps 665 mmHg 95%
    Show more